Regional Weather Roundup
Issued by NWS Charleston, WV

Home | Current Version | Previous Version | Graphics & Text | Print | Product List | Glossary On
Versions: 1 2 3 4 5 6 7 8 9 10 11 12 13 14 15 16 17 18 19 20 21 22 23 24 25 26 27 28 29 30 31 32 33 34 35 36 37 38 39 40 41 42 43 44 45 46 47 48 49 50
000
ASUS41 KRLX 290310
RWRRLX
West Virginia Regional Weather Roundup
National Weather Service Charleston WV
1000 PM EST SUN DEC 28 2014

Note: "fair" indicates few or no clouds below 12,000 feet with no
significant weather and/or obstructions to visibility.

WVZ003-290400-
Northern Panhandle of West Virginia

CITY           SKY/WX    TMP DP  RH WIND       PRES   REMARKS
WHEELING       CLOUDY    35  29  78 W3        30.14S
$$

WVZ009-290400-
Northwest West Virginia

CITY           SKY/WX    TMP DP  RH WIND       PRES   REMARKS
PARKERSBURG    CLOUDY    35  32  88 CALM      30.20R FOG
$$

WVZ006-290400-
Western West Virginia

CITY           SKY/WX    TMP DP  RH WIND       PRES   REMARKS
HUNTINGTON     CLOUDY    37  34  89 N3        30.17S
$$

WVZ015-290400-
West Central West Virginia

CITY           SKY/WX    TMP DP  RH WIND       PRES   REMARKS
CHARLESTON     LGT RAIN  38  36  92 CALM      30.16S
$$

WVZ022-031-290400-
North Central West Virginia

CITY           SKY/WX    TMP DP  RH WIND       PRES   REMARKS
CLARKSBURG     CLOUDY    36  33  89 N5        30.15R
MORGANTOWN     CLOUDY    36  31  82 CALM      30.16R
$$

WVZ025-035-042-045-290400-
Southern West Virginia

CITY           SKY/WX    TMP DP  RH WIND       PRES   REMARKS
BECKLEY        LGT RAIN  39  37  92 N6        30.10S
LOGAN          FOG       39  39 100 CALM      30.12S VSB 1/2
BLUEFIELD      LGT RAIN  45  42  89 NW6       30.08S FOG
LEWISBURG      CLOUDY    43  40  86 CALM      30.09S
$$

WVZ047-290400-
Northern Mountains of West Virginia

CITY           SKY/WX    TMP DP  RH WIND       PRES   REMARKS
ELKINS         LGT RAIN  37  37 100 N6        30.11F
$$

WVZ052-290400-
Eastern Panhandle of West Virginia

CITY           SKY/WX    TMP DP  RH WIND       PRES   REMARKS
MARTINSBURG    CLOUDY    45  32  60 N12       30.11R
PETERSBURG     CLOUDY    47  36  65 N10       30.09S
$$



USA.gov is the U.S. government's official web portal to all federal, state and local government web resources and services.